Location: Altleiningen
(49.5078°N, 8.0741°E)
Time: 21:19:45
(UTC+00:00)

Cosmos 2344 - Pass Details

Date: 14 June 2025
Orbit: 1199 x 3043 km, 63.3° (Epoch: 16 July)

Event Time Altitude Azimuth Distance (km) Brightness Sun altitude
Rises 21:31:08 0° 315° (NW) 4,182 7.9 -12.7°
Reaches altitude 10° 21:33:41 10° 318° (NW) 3,290 7.1 -12.9°
Maximum altitude 21:41:29 69° 42° (NE) 1,594 4.2 -13.4°
Drops below altitude 10° 21:51:58 10° 126° (SE) 4,340 5.8 -14.1°
Enters shadow 21:52:05 10° 126° (SE) 4,378 5.9 -14.1°
